Orbital Elements at Epoch 2459200.5 (2020-Dec-17.0) TDB
Reference: JPL 20 (heliocentric ecliptic J2000)
Element | Value | Uncertainty (1-sigma) | Units |
e | .1855161118202628 | 3.4654e-08 | |
a | 2.203201689214872 | 8.6209e-09 | au |
q | 1.794472278275894 | 7.6155e-08 | au |
i | 5.063383128764849 | 4.1893e-06 | deg |
node | 341.9507101269432 | 5.0175e-05 | deg |
peri | 321.8209070374003 | 5.1754e-05 | deg |
M | 207.2195408062934 | 1.4686e-05 | deg |
tp | 2459707.426647095776 (2022-May-07.92664710) | 5.0422e-05 | TDB |
period | 1194.482553054118 3.27 | 7.0109e-06 1.919e-08 | d yr |
n | .3013857331608003 | 1.7689e-09 | deg/d |
Q | 2.61193110015385 | 1.022e-08 | au |
|
| | Orbit Determination Parameters
Additional Information
|